Content
SEND FEEDBACK

Daily
Averages
Monthly
Summary
Canada

BANFF, ALBERTA


Home > North America > Canada > Alberta
Elevation: 4583 feet     Latitude: 51 11N     Longitude: 115 34W

WEATHER
 
SELECT A DAY
Number of Records: 132,277;   Date Range: 1/1/95 - 8/20/14
 
SHARE

PRINT THIS DATA

[ ← Previous Day ]
WEATHER ALMANAC - OCTOBER 8, 2013
[ Next Day → ]
[ °C ]   °F
We're sorry. There is no daily almanac available for Banff, Alberta on October 8, 2013.
WEATHER BY HOUR - OCTOBER 8, 2013
[ °C ]   °F
Local TimeTemperatureDewpointHumidityBarometerVisibilityWind DirectionWind SpeedGust SpeedPrecipitationEventsConditions
1:00 AM39.4 °F31.5 °F73 %29.65 inSW (230°)4.6 mph
2:00 AM39.9 °F31.6 °F72 %29.66 inWSW (240°)3.5 mph
3:00 AM42.3 °F29.1 °F60 %29.67 inWSW (250°)4.6 mph
4:00 AM39.4 °F31.1 °F72 %29.69 inWSW (240°)3.5 mph
5:00 AM39.6 °F30.9 °F71 %29.70 inWSW (240°)3.5 mph
6:00 AM39.6 °F30.9 °F71 %29.71 inSW (230°)3.5 mph
7:00 AM39.7 °F30.0 °F68 %29.72 inWSW (240°)3.5 mph
8:00 AM38.8 °F31.1 °F74 %29.73 inSW (230°)5.8 mph
9:00 AM38.5 °F31.8 °F77 %29.75 inWSW (240°)4.6 mph
10:00 AM39.0 °F31.5 °F74 %29.77 inWSW (240°)3.5 mph
11:00 AM40.3 °F31.3 °F70 %29.77 inWSW (240°)4.6 mph
12:00 PM43.3 °F32.0 °F64 %29.78 inWSW (240°)4.6 mph
1:00 PM44.1 °F30.9 °F60 %29.80 inSW (230°)5.8 mph
2:00 PM45.1 °F31.6 °F59 %29.79 inSW (220°)6.9 mph
3:00 PM47.3 °F30.2 °F52 %29.80 inWSW (240°)9.2 mph
4:00 PM47.8 °F29.7 °F49 %29.82 inWSW (250°)8.1 mph
5:00 PM38.3 °F35.6 °F90 %29.91 inNNE (30°)6.9 mph
6:00 PM37.0 °F34.7 °F91 %29.95 inNNW (340°)2.3 mph0.04 in
7:00 PM36.9 °F36.1 °F97 %29.98 inWest (260°)1.2 mph0.01 in
8:00 PM36.3 °F35.6 °F97 %30.02 inCalm
9:00 PM36.0 °F35.1 °F97 %30.05 inENE (60°)2.3 mph
10:00 PM35.6 °F34.7 °F97 %30.06 inENE (60°)3.5 mph
11:00 PM35.6 °F34.5 °F96 %30.07 inENE (60°)1.2 mph
Hourly data recorded from CWZG, located miles away from Banff, Alberta







STORIES FROM OUR PARTNERS